User: anonymous   Login
Location: Bakov nad Jizerou
(50.4784°N, 14.9394°E)
Time: 08:22:16
(UTC+00:00)
Language:

RESURS O1 DEB - Orbit

View from above orbital plane
View from above orbital plane
View from above satellite
View from above satellite

Ground track
Ground track

The orbit data is extracted from the following two-line orbital elements,

1 47198U 94074CL  22028.66577342  .00012881  00000-0  14334-2 0  9994
2 47198  97.8745  81.4802 0002003  70.8483 289.2950 14.87255071 65162
Epoch (UTC): 28 January 2022 15:58:42
Eccentricity: 0.0002003
inclination: 97.8745°
perigee height: 605 km
apogee height: 608 km
right ascension of ascending node: 81.4802°
argument of perigee: 70.8483°
revolutions per day: 14.87255071
mean anomaly at epoch: 289.2950°
orbit number at epoch: 6516

The dashed part of the orbit path shows where the satellite is in the earth's shadow,  

DLR